Location: Greenwich
(51.4790°N, 0.0090°E)
Time: 19:41:50
(UTC+01:00)

Vanguard 2 Rocket - Visible Passes

Search period start: 19 April 2024 00:00
Search period end: 29 April 2024 00:00
Orbit: 555 x 3307 km, 32.9° (Epoch: 19 April)

Date Brightness Start Highest point End Pass type
(mag) Time Alt. Az. Time Alt. Az. Time Alt. Az.
19 Apr 9.6 00:51:18 10° WSW 01:09:02 42° S 01:24:33 10° ESE visible
19 Apr 9.6 03:07:37 10° WSW 03:23:52 34° SSW 03:36:28 10° SSE visible
19 Apr 10.0 21:36:38 10° SSW 21:50:26 29° SSE 22:05:42 10° E visible
19 Apr 9.7 23:48:12 10° SW 00:05:18 41° S 00:21:50 10° ESE visible
20 Apr 9.6 02:03:16 10° WSW 02:20:39 39° SSW 02:35:00 10° SE visible
20 Apr 9.9 04:21:31 10° W 04:34:20 23° SW 04:44:33 10° S visible
20 Apr 10.1 20:36:09 10° S 20:47:32 22° SE 21:00:39 10° E visible
20 Apr 9.8 22:45:45 10° SW 23:01:37 38° SSE 23:18:30 10° ESE visible
21 Apr 9.6 00:59:29 10° WSW 01:17:04 42° S 01:32:55 10° SE visible
21 Apr 9.8 03:16:14 10° W 03:31:41 30° SSW 03:44:12 10° SSE visible
21 Apr 9.9 21:43:57 10° SSW 21:58:11 33° SSE 22:14:32 10° E visible
21 Apr 9.7 23:56:18 10° WSW 00:13:18 42° S 00:30:13 10° ESE visible
22 Apr 9.7 02:11:43 10° WSW 02:28:33 36° SSW 02:42:57 10° SE visible
22 Apr 10.0 04:31:05 10° W 04:41:53 18° SW 04:51:02 10° S visible
22 Apr 10.0 20:42:57 10° SSW 20:55:07 27° SE 21:09:51 10° E visible
22 Apr 9.7 22:53:41 10° SW 23:09:32 41° S 23:26:57 10° ESE visible
23 Apr 9.7 01:07:51 10° WSW 01:25:02 40° SSW 01:41:00 10° SE visible
23 Apr 9.9 03:25:08 10° W 03:39:20 25° SW 03:51:22 10° S visible
23 Apr 9.8 21:51:41 10° SW 22:05:59 37° SSE 22:23:04 10° ESE visible
24 Apr 9.7 00:04:34 10° WSW 00:21:16 42° S 00:38:24 10° ESE visible
24 Apr 9.8 02:20:21 10° W 02:36:19 32° SSW 02:50:30 10° SSE visible
24 Apr 10.2 04:41:59 10° WSW 04:49:16 13° SW 04:55:52 10° SSW visible
24 Apr 9.8 20:50:21 10° SSW 21:02:48 32° SSE 21:18:35 10° E visible
24 Apr 9.7 23:01:51 10° WSW 23:17:29 42° S 23:35:10 10° ESE visible
25 Apr 9.8 01:16:21 10° WSW 01:32:53 37° SSW 01:48:46 10° SE visible
25 Apr 10.1 03:34:34 10° W 03:46:50 20° SW 03:57:46 10° S visible
25 Apr 9.7 21:59:43 10° SW 22:13:53 40° SSE 22:31:22 10° ESE visible
26 Apr 9.7 00:12:59 10° WSW 00:29:13 40° S 00:46:19 10° SE visible
26 Apr 9.9 02:29:17 10° W 02:43:57 27° SW 02:57:30 10° SSE visible
26 Apr 9.7 20:58:09 10° SW 21:10:35 35° SSE 21:26:59 10° ESE visible
26 Apr 9.7 23:10:13 10° WSW 23:25:27 42° S 23:39:35 18° SE visible
27 Apr 9.9 01:25:03 10° W 01:40:39 33° SSW 01:56:06 10° SSE visible
27 Apr 10.3 03:45:04 10° WSW 03:59:28 13° SSW 04:02:46 10° SSW visible
27 Apr 9.7 22:07:58 10° SW 22:21:49 41° S 22:38:32 12° ESE visible
28 Apr 9.8 00:21:34 10° WSW 00:37:05 37° SSW 00:43:57 30° SSE visible
28 Apr 10.2 02:38:41 10° W 03:04:06 - S 02:49:22 21° SW visible
28 Apr 9.7 21:06:14 10° SW 21:18:29 37° SSE 21:35:09 10° ESE visible
